SL-12 DEB, 36882

Orbit data source: Space-Track

SL-12 DEB, 36882 is space debris in LEO originally from a launch on Tue, 10 Jan 1989 UTC launched from the Tyuratam Missile And Space Complex (TTMTR). Debris objects in space refer to the collection of defunct objects orbiting the Earth. Examples of debris include non-operational satellites, rocket bodies, and fragments generated from explosions, collisions, or faulty payload assembly.

Loading next visibility...
Identifier
36882, 1989-001V
Orbit
LEO
Country
Flag of CISCIS
Related business
Manufacturer
Unknown
Mission
Spacecraft
Bus & Motor
Unknown
Mass
Unknown
Launch date (UTC)
1989-01-10 (37 years ago)
Launch vehicle
Unknown
Launch site
Tyuratam Missile And Space Complex (TTMTR)
Object type
Payload
Rocket body
Debris
Shape & HBR
Unknown shape, 0.1 m
Radar Cross Section
Small (<0.1 m²)

Expand to show TLE details & history
Last TLE update: 7 hours ago

TLE from 7 hours ago
0 SL-12 DEB
1 36882U 89001V   26074.23443068 -.00019663  00000-0 -94971-1 0  9992
2 36882  64.7963 134.9792 1890365  79.2782 301.4217 10.22868020546648
Epoch: 2026-03-15T05:37Z
TLE epoch observation values (Epoch: 2026-03-15T05:37:34.810Z)
Latitude
-0.00002°
Longitude
-122.26003°
Altitude
1,971.343 km
Speed
7.144 km/s
True Right ascension
08h 59m 55s
True Declination
0° 00' 00"
Sunlit
Object was in full shadow at epoch
Visualization orbit readout
Latitude
Unknown
Longitude
Unknown
Altitude
Unknown
Speed
Unknown
Apparent Right ascension
Unknown
Apparent Declination
Unknown
Sunlit
N/A
Visualization observer readout
Local Sidereal Time
17:38:13
Azimuth
Unknown
Elevation
Unknown
Doppler factor
Unknown
Orbital elements
Apogee altitude
4,279.484 km
Perigee altitude
890.724 km
Semi-major axis
8,963.241 km
Eccentricity
0.18904
Inclination
64.7963°
RAAN
134.9792°
Arg. of periapsis
79.2782°
True anomaly
280.81584°
Mean anomaly
301.4217°
Eccentric anomaly
291.33281°
Mean motion
2.55768 °/min
Orbital period
140.75 mins
BSTAR
-0.094971
Loading maneuver chart data...
Computing Atmospheric mass density...
Loading historical data...
Loading historical data...
Loading historical data...
Loading historical data...
Loading historical data...
Loading historical data...
Loading historical data...

Documentation

Showing up to 5 results
|